OpenBCM V1.08-5-g2f4a (Linux)

Packet Radio Mailbox

IZ3LSV

[San Dona' di P. JN]

 Login: GUEST





  
I0OJJ  > KEPS     11.10.25 01:26l 314 Lines 14999 Bytes #113 (0) @ AMSAT
BID : ORB25284.1
Read: GUEST
Subj: 2Line Orbital Elements 25284.AMSAT
Path: IZ3LSV<DB0ERF<DK0WUE<PI8ZTM<CX2SA<EA2RCF<I0OJJ
Sent: 251011/0021z @:I0OJJ.ITA.EU [Rome] obcm1.08-11-2-gbfe9
From: I0OJJ @ I0OJJ.ITA.EU (Gustavo)
To:   KEPS @ AMSAT
X-Info: This message was generated automatically


QST de W1STR

AMSAT Orbital Elements for Amateur Satellites in TLE Format
From Orbital Analysis Office
New England Sci-Tech STEM Education Center
Natick MA October 11, 2025
To all radio amateurs


These element sets describe the orbits of various satellites 
in use by the amateur radio community. For details see:
www.amsat.org/keplerian-elements-formats/

A daily update of element sets is available at:
www.amsat.org/tle/daily-bulletin.txt
or without bulletin text:
www.amsat.org/tle/dailytle.txt


AO-07
1 07530U 74089B   25283.47903133 -.00000045  00000-0  75945-5 0  9998
2 07530 101.9989 289.0717 0011920 247.5376 280.9678 12.53692332329229
UO-11
1 14781U 84021B   25283.86787338  .00002056  00000-0  21986-3 0  9998
2 14781  97.7711 247.9216 0006162 295.3641  64.6938 14.89819100219998
AO-27
1 22825U 93061C   25283.15453014  .00000146  00000-0  72868-4 0  9997
2 22825  98.7236 345.2434 0009459 111.7069 248.5121 14.30842526671241
FO-29
1 24278U 96046B   25283.41157115 -.00000018  00000-0  17611-4 0  9993
2 24278  98.5537 161.0279 0350434  24.4427 337.2889 13.53256473439386
NOAA-15
1 25338U 98030A   25283.79631579  .00000194  00000-0  97086-4 0  9996
2 25338  98.5292 305.9309 0010255   5.0976 355.0308 14.27033073425721
GO-32
1 25397U 98043D   25283.48518690  .00000104  00000-0  64917-4 0  9997
2 25397  98.9856 265.2540 0001050 162.9096 197.2117 14.24350301415782
ISS
1 25544U 98067A   25283.85013512  .00010586  00000-0  19435-3 0  9990
2 25544  51.6324  93.8306 0000866 236.6205 123.4701 15.49830164533107
NO-44
1 26931U 01043C   25283.10134646  .00000218  00000-0  11237-3 0  9992
2 26931  67.0505 171.0435 0007122 273.7569  86.2718 14.31801942254644
SO-50
1 27607U 02058C   25283.72087918  .00001892  00000-0  24667-3 0  9997
2 27607  64.5533 180.3173 0068078 308.4334  51.0672 14.82061330227478
CO-55
1 27844U 03031E   25283.49864433  .00000415  00000-0  19931-3 0  9999
2 27844  98.6790 290.2099 0009468 183.9629 176.1477 14.24100479156133
CO-57
1 27848U 03031J   25283.01293738  .00000328  00000-0  16351-3 0  9991
2 27848  98.6819 289.6424 0008983 203.6888 156.3878 14.23419782155785
RS-22
1 27939U 03042A   25283.88261419  .00001592  00000-0  25775-3 0  9994
2 27939  98.3380  96.4243 0011075 344.9701 151.4092 14.72699925178847
CO-58
1 28895U 05043F   25283.82360609  .00002314  00000-0  38079-3 0  9998
2 28895  98.2676  69.8748 0013316 276.8951  83.0740 14.71508015 65067
CO-65
1 32785U 08021C   25283.86984449  .00007467  00000-0  51737-3 0  9998
2 32785  97.8014 256.1473 0010523 145.3115 214.8799 15.05894567947623
CO-66
1 32791U 08021J   25283.46680669  .00017734  00000-0  77208-3 0  9997
2 32791  97.7406 266.5954 0006463  98.8331 261.3636 15.22272614949163
RS-30
1 32953U 08025A   25283.85673348  .00000026  00000-0  11805-3 0  9997
2 32953  82.5034 150.5362 0019547 133.8346 226.4354 12.43169214788712
NOAA-19
1 33591U 09005A   25283.80469836  .00000069  00000-0  60881-4 0  9991
2 33591  98.9848 349.1284 0014005  19.9892 340.1826 14.13416631859251
SRMSAT
1 37841U 11058D   25283.88531170  .00000468  00000-0  11069-3 0  9999
2 37841  19.9710 128.3510 0011716 341.3908  54.4061 14.11478717722558
ZACUBE-1
1 39417U 13066B   25283.62615872  .00007803  00000-0  65307-3 0  9999
2 39417  97.7948 240.1626 0042810   4.0796 356.0767 14.98015566643329
Delfi-N3xt
1 39428U 13066N   25283.72983286  .00010897  00000-0  10582-2 0  9990
2 39428  97.8295 200.0897 0080188 315.8525  43.6310 14.90373614637403
GOMX-1
1 39430U 13066Q   25283.86913969  .00002506  00000-0  38941-3 0  9997
2 39430  97.6673 134.9233 0131695 157.0474 203.6692 14.68183721633312
LO-74
1 39440U 13066AA  25283.80931189  .00004848  00000-0  47840-3 0  9995
2 39440  97.8606 227.6474 0062174 131.8044 228.8508 14.90998505639798
AO-73
1 39444U 13066AE  25283.63389360  .00011161  00000-0  78988-3 0  9991
2 39444  97.7982 246.2433 0039146 334.3683  25.5601 15.04395251642078
DTUSAT-2
1 40030U 14033W   25283.42600095  .00010670  00000-0  65622-3 0  9992
2 40030  98.0697 261.4226 0009294  18.4750 341.6813 15.10204523614921
EO-80
1 40032U 14033Y   25283.43962573  .00009710  00000-0  59647-3 0  9990
2 40032  98.0573 260.9209 0006522 317.1670  42.9049 15.10295039614904
LILACSAT-2
1 40908U 15049K   25283.84811670  .00015318  00000-0  35852-3 0  9999
2 40908  97.4995 307.3861 0010513  80.7259 279.5177 15.42167039557200
IO-86
1 40931U 15052B   25151.18580175  .00001241  00000-0  78118-4 0  9996
2 40931   6.0006  24.0987 0012733 338.8432  21.1169 14.78805930523159
Horyu-4
1 41340U 16012D   25283.58601390  .00040037  00000-0  84886-3 0  9995
2 41340  30.9967  21.2763 0003513 267.0174  93.0072 15.43819596531762
Lapan A3
1 41603U 16040E   25283.89240541  .00004256  00000-0  14506-3 0  9994
2 41603  97.1428 283.7657 0010703 177.8156 182.3135 15.30836309516644
CAS-2T
1 41847U 16066G   25283.63727404  .00002395  00000-0  34597-3 0  9996
2 41847  98.4099 356.9930 0345163 165.9248 195.1867 14.43860178468778
CAS-4B
1 42759U 17034B   25283.45177519  .01170598  85687-3  11257-2 0  9997
2 42759  42.9923 296.0347 0014165  90.6048 269.6457 16.10774013461980
CAS-4A
1 42761U 17034D   25281.34159269  .04203186  90411-5  12507-2 0  9993
2 42761  42.9927 303.5081 0008135  81.2710 278.9099 16.26032227461692
TechnoSat
1 42829U 17042E   25283.41676674  .00005277  00000-0  39889-3 0  9991
2 42829  97.3994  86.3993 0017941 226.0388 133.9358 15.02639783449167
AO-91
1 43017U 17073E   25283.13812313  .00009672  00000-0  47054-3 0  9992
2 43017  97.5012 150.8472 0167845 108.1410 253.8176 15.06968791427652
S-Net D
1 43186U 18014G   25283.23005718  .00006584  00000-0  37396-3 0  9996
2 43186  97.5479 184.8864 0009518 151.1806 208.9952 15.13215044420916
S-Net B
1 43187U 18014H   25283.30324769  .00006149  00000-0  34967-3 0  9993
2 43187  97.5485 184.9366 0010387 147.0713 213.1167 15.13193322420920
S-Net A
1 43188U 18014J   25283.69289216  .00006661  00000-0  37812-3 0  9994
2 43188  97.5491 185.4891 0010236 146.8088 213.3787 15.13226082420988
S-Net C
1 43189U 18014K   25283.30597541  .00006068  00000-0  34503-3 0  9991
2 43189  97.5510 185.1409 0011939 142.4198 217.7870 15.13187442419477
Ten-Koh
1 43677U 18084G   25283.46932131  .00002886  00000-0  22973-3 0  9997
2 43677  98.0744 100.5961 0008319 204.7843 155.2981 15.01228913378676
PO-101
1 43678U 18084H   25283.84683890  .00003362  00000-0  28298-3 0  9991
2 43678  98.1066 104.7779 0007357 224.7232 135.3397 14.98959093378847
QO-100
1 43700U 18090A   25283.85251728  .00000140  00000-0  00000+0 0  9994
2 43700   0.0181 159.7628 0002084  82.0666 110.5841  1.00272359 25170
MinXSS-2
1 43758U 18099A   25283.15229080  .00022071  00000-0  75159-3 0  9993
2 43758  97.4881 349.8327 0011689  86.1977 274.0600 15.30352164375683
AO-95
1 43770U 18099N   25283.10218784  .00011834  00000-0  55481-3 0  9992
2 43770  97.4775 339.9244 0011159 140.5999 219.6050 15.19780001375145
SNUSat 2
1 43782U 18099AA  25283.42025541  .00009747  00000-0  50031-3 0  9993
2 43782  97.4454 335.9526 0013096  89.5587 270.7147 15.16647012375100
SnugLite
1 43784U 18099AC  25283.82891227  .00012618  00000-0  58558-3 0  9994
2 43784  97.4266 336.2012 0004718  91.0603 269.1172 15.20160518375347
ITASat 1
1 43786U 18099AE  25283.10858254  .00007621  00000-0  41419-3 0  9996
2 43786  97.4422 334.7766 0014940 138.6471 221.5895 15.14677030374990
EAGLET 1
1 43790U 18099AJ  25283.57982841  .00004812  00000-0  29769-3 0  9995
2 43790  97.4613 334.7475 0013110 123.7512 236.4968 15.10210799374620
ESEO
1 43792U 18099AL  25283.84707142  .00002121  00000-0  16110-3 0  9993
2 43792  97.4349 326.5786 0014809 102.1408 258.1477 15.03125675374337
JO-97
1 43803U 18099AX  25283.12058883  .00014636  00000-0  60451-3 0  9999
2 43803  97.4516 341.2435 0008229  80.6439 279.5728 15.24083217375418
Suomi 100
1 43804U 18099AY  25283.15261136  .00012679  00000-0  57190-3 0  9991
2 43804  97.4582 340.1817 0013115  82.9836 277.2891 15.21072929375310
ISAT
1 43879U 18111D   25283.72330279  .00033194  00000-0  94654-3 0  9997
2 43879  97.5871 201.2132 0010744 112.6481 247.5900 15.35938668372553
UWE-4
1 43880U 18111E   25283.48543807  .00022824  00000-0  77682-3 0  9995
2 43880  97.5813 198.4764 0013006 127.9169 232.3249 15.30347838372393
Sparrow
1 43881U 18111F   25283.72301742  .00035857  00000-0  96833-3 0  9992
2 43881  97.6046 204.6205 0008035 135.6269 224.5620 15.37643542372660
Prox-1
1 44339U 19036A   25283.83811212  .00013041  00000-0  15392-2 0  9999
2 44339  23.9976 330.6081 0007130  48.2445 311.8662 14.82872350336313
Taurus 1
1 44530U 19059C   25283.80816028  .00008116  00000-0  14342-2 0  9995
2 44530  98.6210  69.2825 0008816  14.0397 346.1049 14.67664304322008
Duchifat 3
1 44854U 19089C   25283.37718785  .00148160  00000-0  15092-2 0  9997
2 44854  36.9362 287.1005 0007885 200.2009 159.8442 15.63688280322119
TO-108
1 44881U 19093C   25283.80835340  .00001298  00000-0  15490-3 0  9990
2 44881  97.7823 356.8342 0013646 181.1518 178.9669 14.85883892314379
FloripaSat 1
1 44885U 19093G   25283.83164125  .00007165  00000-0  57980-3 0  9992
2 44885  97.8097  11.7714 0010530 162.9784 197.1794 15.00023260315217
RS-44
1 44909U 19096E   25283.14125975  .00000031  00000-0  79510-4 0  9995
2 44909  82.5210 145.8743 0217791   9.2806 351.2220 12.79744470270368
UPMSat 2
1 46276U 20061E   25283.75009685  .06319221  24380-5  40758-3 0  9997
2 46276  97.2125   4.7158 0010281 265.0187  94.9939 16.40828455284942
SALSAT
1 46495U 20068K   25283.69422602  .00009723  00000-0  39463-3 0  9994
2 46495  97.8747 267.6561 0013163  94.2660 266.0080 15.24751320277273
